[[{"header":{"parameterUnit":"m.s-1","parameterCategory":1,"la1":30.2991,"la2":30.254,"lo1":-89.0895,"lo2":-89.0444,"dy":0.0017,"dx":0.0017,"nx":28,"ny":28,"refTime":"2025-03-14T03:00:00:Z","depth":0,"parameterNumber":2,"parameterNumberName":"U-component_of_WINDS"},"data":[0,0,0,0,0,0,0,0,0,0,0,0,0,0,0,0,0,0,0,0,0,0,0,0,0,0,0,0,0,0,0,0,0,0,0,0,0,0,0,0,0,0,0,0,0,0,0,0,0,0,0,0,0,0,0,0,0,0,-3.8446,-3.8448,0,-3.8587,-3.8588,-3.859,-3.8644,-3.8643,-3.8643,-3.8642,-3.8785,-3.8789,-3.8793,0,0,0,0,0,0,0,0,0,0,0,0,0,-3.8224,-3.8228,-3.8446,-3.8448,-3.845,-3.8586,-3.8588,-3.859,-3.8644,-3.8643,-3.8643,-3.8642,-3.8784,-3.8789,-3.8794,0,0,0,0,0,0,0,0,0,0,0,0,0,-3.8338,-3.8229,-3.8446,-3.8493,-3.8498,-3.8586,-3.8588,-3.8591,-3.8644,-3.8643,-3.8643,-3.8642,-3.8782,-3.8788,-3.8794,-3.8845,0,0,-3.8814,-3.8816,0,0,0,0,0,0,0,0,-3.8331,-3.8346,-3.8484,-3.849,-3.8496,-3.8597,-3.8562,-3.8676,-3.8644,-3.8589,-3.8642,-3.8642,-3.8723,-3.8734,-3.8762,-3.8852,-3.8858,-3.8814,-3.8818,-3.8821,-3.8822,0,0,0,0,0,0,0,-3.8324,-3.834,-3.8502,-3.8486,-3.8494,-3.8507,-3.8522,-3.8584,-3.8657,-3.8593,-3.8598,-3.8614,-3.8726,-3.8755,-3.8765,-3.886,-3.8814,-3.8819,-3.8823,-3.8826,-3.9,-3.9001,0,0,0,0,0,0,-3.8308,-3.8333,-3.8497,-3.8506,-3.8411,-3.8511,-3.8529,-3.8565,-3.8657,-3.867,-3.8614,-3.8615,-3.8745,-3.8758,-3.8771,-3.8837,-3.8821,-3.8826,-3.883,-3.8999,-3.9,-3.9001,0,0,0,0,0,0,-3.8303,-3.8322,-3.8492,-3.8421,-3.8444,-3.8516,-3.8556,-3.8568,-3.8598,-3.8672,-3.8686,-3.863,-3.8745,-3.8762,-3.8827,-3.8842,-3.8829,-3.8835,-3.8998,-3.8999,-3.9001,-3.8968,0,0,0,0,0,0,-3.8296,-3.832,-3.834,-3.8421,-3.8447,-3.8545,-3.8557,-3.8572,-3.8609,-3.8612,-3.8692,-3.8704,-3.8746,-3.8817,-3.8833,-3.8851,-3.884,-3.8997,-3.8999,-3.9,-3.8968,-3.8968,-3.8968,0,0,0,0,0,-3.8288,-3.8325,-3.8341,-3.836,-3.8474,-3.8546,-3.8561,-3.8608,-3.861,-3.863,-3.8679,-3.8702,-3.8838,-3.8823,-3.8841,-3.8861,-3.8996,-3.8998,-3.9,-3.8968,-3.8968,-3.8968,0,0,0,0,0,0,-3.8243,-3.8336,-3.8355,-3.8419,-3.8474,-3.8555,-3.8582,-3.8607,-3.8663,-3.8663,-3.872,-3.8738,-3.8798,-3.8836,-3.8818,-3.8916,-3.8919,-3.8924,-3.8888,-3.8889,-3.8889,-3.8878,-3.8845,0,0,0,0,0,-3.8241,-3.8292,-3.837,-3.8419,-3.8446,-3.8509,-3.8543,-3.8575,-3.8634,-3.8657,-3.871,-3.8767,-3.8823,-3.8858,-3.8913,-3.8974,-3.8992,-3.8997,-3.8997,-3.8997,-3.9001,-3.9036,-3.9039,-3.9008,-3.9008,-3.9007,0,0,-3.8236,-3.8293,-3.8322,-3.8412,-3.8458,-3.851,-3.8529,-3.8582,-3.8621,-3.8666,-3.873,-3.8771,-3.8838,-3.8901,-3.8931,-3.8935,-3.9014,-3.8999,-3.8998,-3.9003,-3.9038,-3.9041,-3.9044,-3.9009,-3.9009,-3.9008,0,0,-3.8254,-3.8302,-3.8349,-3.8395,-3.8466,-3.8508,-3.8519,-3.8596,-3.8625,-3.8691,-3.8726,-3.8772,-3.8867,-3.8914,-3.8949,-3.8986,-3.9009,-3.9002,-3.9002,-3.9036,-3.9038,-3.9041,-3.9054,-3.9058,-3.9006,-3.9006,-3.9006,0,-3.8239,-3.8318,-3.8369,-3.8421,-3.846,-3.8503,-3.855,-3.8593,-3.8678,-3.8703,-3.8706,-3.8827,-3.8875,-3.8949,-3.8958,-3.8986,-3.9,-3.8993,-3.9034,-3.9037,-3.904,-3.9053,-3.9058,-3.9005,-3.9005,-3.9005,-3.9005,0,-3.8296,-3.8351,-3.838,-3.8461,-3.8503,-3.8552,-3.861,-3.8647,-3.8675,-3.8717,-3.8783,-3.8843,-3.8911,-3.8932,-3.896,-3.9011,-3.9011,-3.9023,-3.9027,-3.9041,-3.9054,-3.9059,-3.9003,-3.9003,-3.9004,-3.9004,0,0,-3.8289,-3.8398,-3.8408,-3.8445,-3.8527,-3.857,-3.8621,-3.8688,-3.8718,-3.8776,-3.882,-3.89,-3.8912,-3.8953,-3.8987,-3.9017,-3.9042,-3.9026,-3.9029,-3.9027,-3.9101,-3.9091,-3.9096,-3.9058,-3.9059,-3.906,-3.9096,0,-3.8317,-3.8411,-3.8458,-3.8532,-3.8582,-3.8625,-3.867,-3.8725,-3.8765,-3.8814,-3.886,-3.8915,-3.8927,-3.8952,-3.8984,-3.9032,-3.9057,-3.903,-3.91,-3.9102,-3.9081,-3.9102,-3.9091,-3.9122,-3.9101,-3.9102,-3.9103,0,-3.8362,-3.8419,-3.8497,-3.8573,-3.8597,-3.8636,-3.8702,-3.8748,-3.8811,-3.8839,-3.8885,-3.8919,-3.8974,-3.8975,-3.9053,-3.9033,-3.9065,-3.9093,-3.9096,-3.9103,-3.9102,-3.911,-3.9132,-3.9137,-3.9111,-3.911,-3.911,0,-3.8348,-3.8445,-3.8504,-3.8535,-3.8625,-3.8652,-3.8691,-3.8753,-3.8791,-3.8849,-3.8874,-3.8937,-3.8971,-3.902,-3.907,-3.9065,-3.9142,-3.9147,-3.9167,-3.9165,-3.918,-3.9178,-3.9207,-3.9201,-3.9201,-3.9201,-3.9201,0,-3.8374,-3.842,-3.8499,-3.8535,-3.8589,-3.8643,-3.8694,-3.8736,-3.8792,-3.8837,-3.8879,-3.892,-3.8984,-3.9034,-3.9074,-3.9132,-3.9147,-3.9171,-3.9181,-3.9167,-3.9164,-3.9188,-3.9187,-3.9202,-3.9202,-3.9202,-3.9202,0,-3.8367,-3.8422,-3.8489,-3.8569,-3.8591,-3.8626,-3.8695,-3.8732,-3.8775,-3.8832,-3.8849,-3.8916,-3.8977,-3.9032,-3.9113,-3.9139,-3.9199,-3.9211,-3.9177,-3.9182,-3.9198,-3.9196,-3.9243,-3.9252,-3.924,-3.924,-3.924,0,-3.838,-3.8416,-3.85,-3.8534,-3.8572,-3.8625,-3.8664,-3.872,-3.8758,-3.8834,-3.8862,-3.8926,-3.898,-3.9075,-3.9131,-3.9193,-3.9207,-3.922,-3.9217,-3.9202,-3.9207,-3.9204,-3.9208,-3.9219,-3.9219,-3.9219,-3.9218,0,-3.8396,-3.8422,-3.8476,-3.854,-3.8585,-3.8638,-3.8692,-3.8717,-3.8783,-3.8825,-3.8887,-3.8929,-3.9012,-3.9075,-3.9144,-3.9184,-3.9212,-3.9219,-3.9227,-3.9213,-3.9191,-3.9203,-3.9175,-3.9217,-3.9218,-3.9218,-3.9218,-3.9218,-3.8399,-3.8434,-3.8498,-3.8558,-3.8604,-3.8654,-3.8693,-3.8741,-3.8795,-3.8866,-3.8896,-3.896,-3.9023,-3.9118,-3.9159,-3.9209,-3.9215,-3.9226,-3.9229,-3.9231,-3.9228,-3.9184,-3.9222,-3.9222,-3.9222,-3.9223,-3.9223,0,-3.8418,-3.8462,-3.8516,-3.859,-3.8637,-3.866,-3.8721,-3.8759,-3.8814,-3.8871,-3.8924,-3.8996,-3.9058,-3.9119,-3.9184,-3.9213,-3.9227,-3.9228,-3.9226,-3.9235,-3.9219,-3.9206,-3.9215,-3.9215,-3.9215,-3.9215,-3.9215,-3.9215,-3.8433,-3.8492,-3.8525,-3.8609,-3.8653,-3.8715,-3.8749,-3.8795,-3.884,-3.8919,-3.8971,-3.9011,-3.9069,-3.9139,-3.9197,-3.9213,-3.9235,-3.9232,-3.9252,-3.9236,-3.9236,-3.9236,-3.9224,-3.9236,-3.9236,-3.9263,-3.9263,-3.9263]},{"header":{"parameterUnit":"m.s-1","parameterCategory":1,"la1":30.2991,"la2":30.254,"lo1":-89.0895,"lo2":-89.0444,"dy":0.0017,"dx":0.0017,"nx":28,"ny":28,"refTime":"2025-03-14T03:00:00:Z","depth":0,"parameterNumber":3,"parameterNumberName":"V-component_of_WINDS"},"data":[0,0,0,0,0,0,0,0,0,0,0,0,0,0,0,0,0,0,0,0,0,0,0,0,0,0,0,0,0,0,0,0,0,0,0,0,0,0,0,0,0,0,0,0,0,0,0,0,0,0,0,0,0,0,0,0,0,0,7.5309,7.531,0,7.5403,7.5404,7.5405,7.5353,7.5351,7.5348,7.5346,7.5438,7.5442,7.5447,0,0,0,0,0,0,0,0,0,0,0,0,0,7.5083,7.5087,7.5309,7.531,7.5311,7.5403,7.5404,7.5405,7.5354,7.535,7.5347,7.5344,7.5436,7.5442,7.5448,0,0,0,0,0,0,0,0,0,0,0,0,0,7.5179,7.5089,7.5309,7.5297,7.5296,7.5402,7.5404,7.5406,7.5354,7.535,7.5347,7.5343,7.5434,7.5441,7.5449,7.557,0,0,7.5471,7.5474,0,0,0,0,0,0,0,0,7.5174,7.5188,7.5297,7.5298,7.5298,7.5362,7.5358,7.5461,7.5355,7.5332,7.5346,7.5341,7.5416,7.5424,7.545,7.5575,7.5579,7.5471,7.5476,7.5479,7.5481,0,0,0,0,0,0,0,7.5167,7.5183,7.5346,7.5299,7.5299,7.5286,7.5295,7.5377,7.5394,7.5334,7.533,7.5342,7.5415,7.5443,7.5452,7.558,7.5471,7.5478,7.5482,7.5485,7.5813,7.5817,0,0,0,0,0,0,7.5162,7.5178,7.5343,7.5349,7.5225,7.5293,7.5304,7.5345,7.5393,7.5397,7.5346,7.534,7.5433,7.5443,7.5455,7.5604,7.5479,7.5486,7.549,7.5809,7.5814,7.5819,0,0,0,0,0,0,7.5157,7.5177,7.5339,7.5263,7.5282,7.5301,7.5348,7.5349,7.5378,7.5402,7.5405,7.5372,7.543,7.5445,7.5543,7.5606,7.5489,7.5496,7.5804,7.5811,7.5817,7.5901,0,0,0,0,0,0,7.5151,7.5176,7.5222,7.5264,7.5287,7.5427,7.5352,7.5354,7.5391,7.5384,7.5427,7.5431,7.5428,7.5533,7.5551,7.5614,7.5501,7.5798,7.5807,7.5815,7.5893,7.591,7.5924,0,0,0,0,0,7.5143,7.5241,7.5225,7.5245,7.5346,7.543,7.5443,7.544,7.5396,7.5443,7.546,7.5429,7.5596,7.5543,7.5563,7.563,7.5794,7.5804,7.5814,7.5886,7.5906,7.5924,0,0,0,0,0,0,7.5203,7.5246,7.5229,7.5343,7.5384,7.5422,7.5481,7.5461,7.5514,7.5505,7.5497,7.5507,7.5611,7.5629,7.557,7.5752,7.5688,7.5703,7.5736,7.5756,7.5771,7.5765,7.5507,0,0,0,0,0,7.5231,7.5297,7.533,7.5427,7.5449,7.5462,7.5498,7.5493,7.5534,7.555,7.5573,7.5614,7.5676,7.5716,7.5774,7.5895,7.5905,7.595,7.5966,7.5979,7.5992,7.606,7.6081,7.5851,7.5851,7.5851,0,0,7.5286,7.5318,7.536,7.544,7.5471,7.5541,7.5476,7.5551,7.5602,7.5561,7.5657,7.5676,7.572,7.5831,7.5881,7.585,7.6057,7.5991,7.6001,7.6007,7.6072,7.6094,7.6113,7.5858,7.5857,7.5856,0,0,7.5424,7.5454,7.554,7.5573,7.5622,7.563,7.5651,7.5693,7.5704,7.5801,7.5772,7.5832,7.5938,7.5972,7.6004,7.6158,7.6133,7.6176,7.6259,7.6326,7.6344,7.636,7.6418,7.6438,7.6189,7.6189,7.6189,0,7.5487,7.5591,7.5586,7.5665,7.5703,7.5671,7.5759,7.579,7.5855,7.5881,7.5845,7.598,7.6007,7.6128,7.6166,7.6191,7.6216,7.6172,7.6342,7.6358,7.6373,7.6428,7.645,7.6194,7.6194,7.6193,7.6193,0,7.5668,7.574,7.5804,7.5871,7.5914,7.5997,7.6005,7.605,7.6041,7.6053,7.6153,7.6185,7.6251,7.6279,7.6269,7.6399,7.6379,7.6343,7.6279,7.64,7.6452,7.6473,7.6202,7.62,7.6198,7.6197,0,0,7.5846,7.5911,7.5935,7.5966,7.6018,7.6074,7.6156,7.6222,7.6262,7.6308,7.6377,7.6469,7.6438,7.6473,7.6467,7.6525,7.6649,7.6483,7.6483,7.6515,7.6798,7.6827,7.6851,7.6633,7.6636,7.664,7.6795,0,7.5989,7.6135,7.6134,7.6268,7.6337,7.6309,7.638,7.642,7.6434,7.6494,7.6508,7.6575,7.6526,7.6548,7.6605,7.6622,7.6707,7.6611,7.6698,7.6702,7.6691,7.6878,7.6907,7.7053,7.6815,7.6818,7.6821,0,7.6176,7.6232,7.6374,7.642,7.6448,7.6513,7.6575,7.6632,7.6677,7.6684,7.6725,7.6711,7.6795,7.6728,7.6844,7.678,7.6815,7.6829,7.6835,7.6845,7.677,7.6895,7.7098,7.7122,7.6852,7.685,7.6847,0,7.6296,7.6405,7.6506,7.6533,7.6588,7.6634,7.6659,7.6701,7.6742,7.6796,7.6822,7.6884,7.6919,7.6968,7.6971,7.6921,7.709,7.7022,7.7098,7.7099,7.7136,7.7134,7.7351,7.7155,7.7155,7.7154,7.7154,0,7.6458,7.6547,7.6561,7.6623,7.6722,7.672,7.6818,7.6838,7.6876,7.6942,7.6919,7.6981,7.698,7.7043,7.7046,7.7144,7.7158,7.7167,7.7167,7.717,7.717,7.7195,7.7186,7.716,7.7159,7.7158,7.7157,0,7.6609,7.6622,7.673,7.6774,7.6788,7.6859,7.6897,7.6956,7.6968,7.7052,7.7071,7.7091,7.7164,7.7172,7.7256,7.7258,7.7377,7.7365,7.7363,7.7362,7.7439,7.7433,7.7682,7.7715,7.7495,7.7497,7.7498,0,7.6713,7.6781,7.6834,7.6878,7.6906,7.6975,7.7018,7.7019,7.7064,7.7123,7.7176,7.7247,7.7305,7.7423,7.7445,7.751,7.7501,7.7583,7.751,7.7513,7.7506,7.7503,7.7511,7.7598,7.7601,7.7602,7.7604,0,7.6897,7.6901,7.6964,7.7031,7.7084,7.7135,7.7184,7.722,7.7227,7.728,7.7356,7.7401,7.7489,7.7561,7.7625,7.765,7.763,7.7627,7.7649,7.7654,7.7652,7.7657,7.7405,7.7622,7.762,7.7619,7.7618,7.7617,7.703,7.7091,7.7139,7.7211,7.7248,7.7295,7.7354,7.7375,7.7439,7.7513,7.7509,7.7593,7.7639,7.7724,7.7754,7.782,7.7792,7.7823,7.7831,7.784,7.7849,7.7639,7.7831,7.7831,7.783,7.783,7.7829,0,7.7216,7.7246,7.7312,7.7383,7.744,7.7417,7.747,7.7519,7.7595,7.7639,7.7698,7.7786,7.7857,7.7885,7.7954,7.8002,7.7994,7.802,7.8018,7.8025,7.7868,7.7844,7.8025,7.8025,7.8025,7.8025,7.8025,7.8025,7.7319,7.7422,7.7432,7.7554,7.7582,7.7667,7.77,7.7744,7.778,7.7881,7.794,7.7958,7.7997,7.8069,7.8134,7.814,7.8168,7.8198,7.8201,7.8055,7.8035,7.8016,7.7994,7.8204,7.8204,7.8352,7.8354,7.8355]}]]